{"data":{"norad_id":67222,"epoch":"2026-09-20T18:53:24.213120Z","epoch_age_seconds":81326,"freshness":"FRESH","line1":"1 67222U 25305D   26263.78708580  .00004407  00000+0  27805-3 0  9995","line2":"2 67222  45.0028 295.1793 0006506 339.6885  20.3732 15.10485723 41766","mean_motion":15.10485723,"eccentricity":0.0006506,"inclination_deg":45.0028,"raan_deg":295.1793,"arg_perigee_deg":339.6885,"mean_anomaly_deg":20.3732,"bstar":0.00027805,"rev_number":4176,"period_min":95.333572378294,"perigee_km":530.22013670298,"apogee_km":539.21514316046,"semimajor_km":6912.8546399317,"source":"CELESTRAK","updated_at":"2026-09-21T09:00:16.506650Z"}}